[[{"header":{"parameterUnit":"m.s-1","parameterCategory":1,"la1":30.2991,"la2":30.254,"lo1":-89.0895,"lo2":-89.0444,"dx":0.0017,"dy":0.0017,"nx":28,"ny":28,"refTime":"2022-12-13T15:00:00:Z","depth":0,"parameterNumber":2,"parameterNumberName":"U-component_of_WINDS"},"data":[0,0,0,0,0,0,0,0,0,0,0,0,0,0,0,0,0,0,0,0,0,0,0,0,0,0,0,0,0,0,0,0,0,0,0,0,0,0,0,0,0,0,0,0,0,0,0,0,0,0,0,0,0,0,0,0,0,0,-6.7811,-6.7813,0,-6.8016,-6.8018,-6.8021,-6.8035,-6.8033,-6.803,-6.8028,-6.8239,-6.8247,-6.8254,0,0,0,0,0,0,0,0,0,0,0,0,0,-6.7435,-6.7442,-6.7811,-6.7814,-6.7816,-6.8016,-6.8018,-6.8021,-6.8035,-6.8033,-6.803,-6.8027,-6.8237,-6.8246,-6.8255,0,0,0,0,0,0,0,0,0,0,0,0,0,-6.7615,-6.7444,-6.7811,-6.7847,-6.7853,-6.8015,-6.8019,-6.8022,-6.8036,-6.8033,-6.8029,-6.8026,-6.8234,-6.8245,-6.8256,-6.8396,0,0,-6.8292,-6.8297,0,0,0,0,0,0,0,0,-6.7605,-6.7629,-6.7839,-6.7845,-6.7851,-6.7996,-6.7963,-6.8148,-6.8037,-6.7966,-6.8028,-6.8024,-6.8161,-6.8179,-6.8224,-6.8406,-6.8415,-6.8293,-6.83,-6.8305,-6.8308,0,0,0,0,0,0,0,-6.7593,-6.762,-6.7892,-6.7842,-6.785,-6.7855,-6.7876,-6.7998,-6.8081,-6.7972,-6.7974,-6.7998,-6.8164,-6.8213,-6.823,-6.8418,-6.8292,-6.8303,-6.831,-6.8314,-6.8727,-6.8731,0,0,0,0,0,0,-6.7573,-6.761,-6.7886,-6.7898,-6.7717,-6.7864,-6.7888,-6.7953,-6.8079,-6.8095,-6.8001,-6.7998,-6.8195,-6.8216,-6.8237,-6.8409,-6.8305,-6.8316,-6.8322,-6.8723,-6.8728,-6.8732,0,0,0,0,0,0,-6.7565,-6.7597,-6.7877,-6.7755,-6.7791,-6.7874,-6.7947,-6.7959,-6.8008,-6.8101,-6.8115,-6.8036,-6.8193,-6.8221,-6.8357,-6.8416,-6.8321,-6.8331,-6.8718,-6.8725,-6.873,-6.8754,0,0,0,0,0,0,-6.7554,-6.7594,-6.7647,-6.7756,-6.7797,-6.7992,-6.7951,-6.7966,-6.8028,-6.8027,-6.8137,-6.8152,-6.8193,-6.8339,-6.8368,-6.8431,-6.834,-6.8713,-6.8721,-6.8728,-6.8748,-6.876,-6.877,0,0,0,0,0,-6.754,-6.7645,-6.765,-6.7683,-6.7865,-6.7996,-6.802,-6.8063,-6.8033,-6.8087,-6.8147,-6.8149,-6.8406,-6.8353,-6.8386,-6.8452,-6.871,-6.8719,-6.8728,-6.8743,-6.8757,-6.8769,0,0,0,0,0,0,-6.7541,-6.766,-6.7666,-6.7809,-6.7893,-6.7998,-6.8067,-6.8077,-6.817,-6.8165,-6.8216,-6.8241,-6.8376,-6.8429,-6.8367,-6.8596,-6.8555,-6.8571,-6.8555,-6.857,-6.858,-6.8563,-6.835,0,0,0,0,0,-6.7558,-6.7654,-6.7753,-6.787,-6.7912,-6.7983,-6.8041,-6.8068,-6.8156,-6.8192,-6.8261,-6.8347,-6.8448,-6.8512,-6.861,-6.8757,-6.8782,-6.882,-6.8831,-6.8839,-6.8851,-6.8934,-6.8951,-6.8762,-6.8762,-6.8762,0,0,-6.7593,-6.7671,-6.7728,-6.7872,-6.794,-6.8038,-6.8012,-6.8117,-6.8191,-6.8208,-6.8339,-6.8395,-6.8495,-6.8637,-6.8703,-6.8685,-6.891,-6.8851,-6.8857,-6.8864,-6.8945,-6.8963,-6.8978,-6.8768,-6.8767,-6.8766,0,0,-6.7707,-6.7776,-6.7881,-6.795,-6.8053,-6.81,-6.8126,-6.8231,-6.8268,-6.8402,-6.8417,-6.8507,-6.8679,-6.8749,-6.8807,-6.8953,-6.8958,-6.8984,-6.904,-6.912,-6.9135,-6.9148,-6.9199,-6.9216,-6.8997,-6.8997,-6.8997,0,-6.7738,-6.7886,-6.7934,-6.8039,-6.8102,-6.8124,-6.8231,-6.8296,-6.8426,-6.8469,-6.8448,-6.8665,-6.8734,-6.8893,-6.8929,-6.8977,-6.9007,-6.8969,-6.9129,-6.9143,-6.9156,-6.9205,-6.9224,-6.8999,-6.8999,-6.8999,-6.8998,0,-6.7919,-6.8022,-6.8095,-6.8219,-6.8292,-6.8397,-6.8462,-6.853,-6.8552,-6.8602,-6.874,-6.8824,-6.8939,-6.898,-6.9002,-6.9143,-6.9129,-6.9118,-6.9077,-6.9175,-6.9222,-6.9241,-6.9002,-6.9002,-6.9001,-6.9,0,0,-6.8033,-6.8186,-6.8211,-6.8269,-6.8386,-6.8467,-6.8576,-6.8689,-6.8746,-6.8837,-6.8928,-6.9075,-6.9066,-6.9133,-6.9164,-6.9235,-6.9344,-6.9216,-6.9219,-6.9234,-6.9504,-6.9509,-6.953,-6.9351,-6.9354,-6.9358,-6.9495,0,-6.8158,-6.8349,-6.8397,-6.8561,-6.8657,-6.8682,-6.8776,-6.8859,-6.891,-6.9001,-6.9058,-6.916,-6.9142,-6.9182,-6.9253,-6.9315,-6.9399,-6.9307,-6.9435,-6.9439,-6.9405,-6.9554,-6.9559,-6.9685,-6.9514,-6.9517,-6.9519,0,-6.8328,-6.8422,-6.8595,-6.8702,-6.8745,-6.8828,-6.8936,-6.9023,-6.9119,-6.9151,-6.9227,-6.9253,-6.9368,-6.9325,-6.9485,-6.9421,-6.9478,-6.9517,-6.9523,-6.9533,-6.9482,-6.9566,-6.9726,-6.9743,-6.9549,-6.9547,-6.9544,0,-6.8391,-6.8563,-6.8688,-6.8737,-6.8866,-6.8924,-6.898,-6.9073,-6.9139,-6.9235,-6.9278,-6.9386,-6.9445,-6.9529,-6.9584,-6.9548,-6.9739,-6.97,-6.9768,-6.9767,-6.9803,-6.9799,-6.9971,-6.9846,-6.9845,-6.9845,-6.9845,0,-6.8524,-6.8628,-6.8718,-6.8795,-6.8914,-6.897,-6.9086,-6.9143,-6.9227,-6.9316,-6.9346,-6.9429,-6.9498,-6.9592,-6.9637,-6.9761,-6.9789,-6.9818,-6.9828,-6.9813,-6.9809,-6.9847,-6.9839,-6.985,-6.9849,-6.9848,-6.9847,0,-6.8612,-6.8677,-6.8815,-6.8927,-6.8958,-6.904,-6.9136,-6.9212,-6.9266,-6.9379,-6.9409,-6.9494,-6.9606,-6.967,-6.9812,-6.9842,-6.998,-6.9987,-6.9946,-6.995,-7.0013,-7.0005,-7.0213,-7.0243,-7.01,-7.0102,-7.0103,0,-6.8689,-6.877,-6.8892,-6.8954,-6.9011,-6.9111,-6.9178,-6.9238,-6.9308,-6.9425,-6.9488,-6.9602,-6.9695,-6.9874,-6.9948,-7.0057,-7.0065,-7.0131,-7.0082,-7.0065,-7.0063,-7.0056,-7.0064,-7.0138,-7.0139,-7.014,-7.0141,0,-6.882,-6.8849,-6.8945,-6.9054,-6.9134,-6.9222,-6.931,-6.9359,-6.9434,-6.9511,-6.9626,-6.9699,-6.9844,-6.9957,-7.0073,-7.0132,-7.0149,-7.0157,-7.0178,-7.0161,-7.0133,-7.0147,-6.9966,-7.015,-7.0149,-7.0149,-7.0148,-7.0148,-6.8904,-6.8977,-6.9074,-6.9181,-6.9254,-6.9336,-6.9413,-6.9478,-6.9575,-6.9697,-6.9728,-6.9849,-6.9946,-7.0103,-7.0166,-7.0262,-7.0251,-7.0282,-7.0289,-7.0295,-7.0295,-7.0122,-7.0284,-7.0284,-7.0284,-7.0284,-7.0284,0,-6.9034,-6.9098,-6.9196,-6.9318,-6.9403,-6.9414,-6.9513,-6.9583,-6.9688,-6.9778,-6.987,-7.0003,-7.0114,-7.0199,-7.0313,-7.0373,-7.0384,-7.0401,-7.0395,-7.0408,-7.03,-7.0269,-7.039,-7.039,-7.039,-7.039,-7.039,-7.039,-6.9111,-6.9235,-6.9277,-6.9439,-6.9504,-6.9621,-6.9677,-6.9753,-6.9825,-6.9972,-7.0064,-7.012,-7.0208,-7.0329,-7.0431,-7.0454,-7.0493,-7.0508,-7.0531,-7.0428,-7.0416,-7.0405,-7.0376,-7.0517,-7.0517,-7.0631,-7.0632,-7.0633]},{"header":{"parameterUnit":"m.s-1","parameterCategory":1,"la1":30.2991,"la2":30.254,"lo1":-89.0895,"lo2":-89.0444,"dx":0.0017,"dy":0.0017,"nx":28,"ny":28,"refTime":"2022-12-13T15:00:00:Z","depth":0,"parameterNumber":3,"parameterNumberName":"V-component_of_WINDS"},"data":[0,0,0,0,0,0,0,0,0,0,0,0,0,0,0,0,0,0,0,0,0,0,0,0,0,0,0,0,0,0,0,0,0,0,0,0,0,0,0,0,0,0,0,0,0,0,0,0,0,0,0,0,0,0,0,0,0,0,1.9257,1.9258,0,1.9386,1.9387,1.9389,1.9463,1.9464,1.9464,1.9464,1.9596,1.9599,1.9602,0,0,0,0,0,0,0,0,0,0,0,0,0,1.9077,1.908,1.9257,1.9258,1.926,1.9386,1.9387,1.9389,1.9463,1.9464,1.9464,1.9464,1.9595,1.9599,1.9603,0,0,0,0,0,0,0,0,0,0,0,0,0,1.9175,1.9081,1.9256,1.9312,1.9318,1.9385,1.9387,1.939,1.9463,1.9464,1.9464,1.9464,1.9594,1.9598,1.9603,1.9624,0,0,1.9618,1.962,0,0,0,0,0,0,0,0,1.917,1.9182,1.9302,1.9308,1.9316,1.9409,1.9372,1.9468,1.9463,1.9408,1.9464,1.9465,1.9533,1.9543,1.9566,1.9631,1.9636,1.9618,1.9621,1.9623,1.9625,0,0,0,0,0,0,0,1.9163,1.9177,1.9308,1.9304,1.9312,1.9332,1.9346,1.9391,1.9467,1.9413,1.9419,1.9433,1.9537,1.9561,1.957,1.9638,1.9618,1.9623,1.9626,1.9627,1.973,1.973,0,0,0,0,0,0,1.9147,1.9171,1.9304,1.9312,1.9242,1.9334,1.9351,1.9379,1.9466,1.948,1.9432,1.9436,1.9553,1.9564,1.9575,1.9608,1.9623,1.9628,1.9631,1.9731,1.973,1.973,0,0,0,0,0,0,1.9143,1.9158,1.9299,1.9243,1.9262,1.9337,1.9368,1.9381,1.9405,1.9481,1.9495,1.9443,1.9554,1.9568,1.9612,1.9614,1.963,1.9634,1.9731,1.9731,1.973,1.9673,0,0,0,0,0,0,1.9137,1.9156,1.9164,1.9243,1.9265,1.9333,1.9368,1.9383,1.9414,1.9419,1.9495,1.9508,1.9555,1.9605,1.9617,1.9621,1.9638,1.9731,1.9731,1.973,1.9675,1.9671,1.9667,0,0,0,0,0,1.9131,1.9142,1.9164,1.918,1.9276,1.9333,1.9346,1.94,1.9413,1.9423,1.9472,1.9506,1.9611,1.9609,1.9623,1.9628,1.9731,1.9731,1.973,1.9677,1.9671,1.9667,0,0,0,0,0,0,1.9061,1.9153,1.9179,1.9216,1.9266,1.9345,1.9358,1.9392,1.9439,1.9442,1.9508,1.9524,1.9563,1.96,1.9595,1.9655,1.9675,1.9678,1.9629,1.9625,1.9621,1.9611,1.9642,0,0,0,0,0,1.905,1.9087,1.9166,1.9191,1.9215,1.9282,1.9309,1.9347,1.9401,1.9423,1.9475,1.9527,1.9573,1.9601,1.9647,1.9681,1.97,1.9692,1.9688,1.9684,1.9686,1.971,1.9708,1.9729,1.9729,1.9729,0,0,1.9027,1.9082,1.9102,1.9179,1.9222,1.9261,1.93,1.9338,1.9368,1.9429,1.9474,1.9515,1.9577,1.9618,1.9638,1.965,1.9684,1.9684,1.968,1.9684,1.9709,1.9707,1.9705,1.9729,1.9729,1.9729,0,0,1.9006,1.905,1.9078,1.9121,1.9187,1.9232,1.9239,1.9314,1.9344,1.9391,1.9438,1.9475,1.9551,1.9594,1.9626,1.9626,1.9659,1.9639,1.9618,1.964,1.9639,1.9638,1.9639,1.9639,1.964,1.964,1.964,0,1.8969,1.9029,1.9087,1.9124,1.9158,1.9216,1.9245,1.9284,1.9361,1.9384,1.9396,1.9495,1.9541,1.9594,1.9594,1.9617,1.9628,1.963,1.9634,1.9634,1.9634,1.9636,1.9636,1.9637,1.9638,1.9638,1.9638,0,1.8982,1.9023,1.9037,1.9112,1.9147,1.9179,1.9244,1.9273,1.9308,1.9352,1.9401,1.9459,1.9519,1.9534,1.9568,1.9593,1.9599,1.9622,1.9643,1.9628,1.9631,1.9632,1.9633,1.9634,1.9635,1.9636,0,0,1.8918,1.9027,1.9031,1.9067,1.9146,1.9179,1.9215,1.9275,1.9299,1.9351,1.9385,1.945,1.9473,1.9509,1.9549,1.9569,1.9568,1.959,1.9593,1.9585,1.9601,1.9583,1.9583,1.9591,1.9591,1.9591,1.9596,0,1.8909,1.8977,1.9033,1.908,1.9121,1.9178,1.9211,1.9263,1.9306,1.9347,1.9395,1.9441,1.9467,1.949,1.9512,1.9563,1.9572,1.9563,1.9624,1.9625,1.9606,1.9585,1.9566,1.9568,1.9598,1.9598,1.9598,0,1.8907,1.8959,1.9011,1.9088,1.9107,1.9135,1.9196,1.9234,1.9296,1.9326,1.9368,1.9411,1.9454,1.9472,1.9533,1.9526,1.9554,1.9583,1.9585,1.9593,1.9611,1.9593,1.9569,1.957,1.96,1.96,1.96,0,1.8857,1.894,1.8983,1.9011,1.9102,1.9121,1.916,1.9222,1.9256,1.9309,1.9332,1.9389,1.942,1.9464,1.9522,1.9529,1.9578,1.96,1.9606,1.9604,1.9613,1.9612,1.9594,1.963,1.963,1.963,1.963,0,1.8842,1.8872,1.8962,1.8988,1.9024,1.9089,1.9123,1.9167,1.9223,1.926,1.9313,1.9346,1.942,1.9463,1.9509,1.9554,1.9567,1.9594,1.9606,1.959,1.9586,1.9609,1.9611,1.963,1.963,1.963,1.963,0,1.8792,1.8853,1.8904,1.8987,1.9009,1.9032,1.9104,1.9133,1.918,1.9226,1.9241,1.9315,1.9369,1.9431,1.9505,1.9536,1.9578,1.9595,1.9557,1.9564,1.9567,1.9566,1.9564,1.9568,1.9599,1.9599,1.9598,0,1.8778,1.8803,1.889,1.8919,1.8957,1.9002,1.9037,1.9103,1.9137,1.9211,1.9231,1.9289,1.9339,1.9423,1.9484,1.9541,1.9561,1.9556,1.957,1.9554,1.9563,1.9561,1.9565,1.9552,1.9551,1.9551,1.955,0,1.8748,1.8778,1.8827,1.8887,1.8927,1.8977,1.903,1.9051,1.9127,1.9163,1.9219,1.9258,1.9335,1.9393,1.9459,1.95,1.9538,1.9546,1.9551,1.9535,1.9512,1.9526,1.9548,1.9545,1.9546,1.9546,1.9547,1.9547,1.8718,1.8744,1.881,1.8863,1.8909,1.8958,1.899,1.9042,1.909,1.9158,1.9194,1.925,1.9315,1.9407,1.9448,1.9493,1.9506,1.9512,1.9514,1.9515,1.9511,1.9505,1.9505,1.9506,1.9506,1.9506,1.9506,0,1.8692,1.8738,1.8786,1.8859,1.8901,1.8935,1.8995,1.9029,1.9078,1.9135,1.9184,1.925,1.9307,1.9373,1.9435,1.9459,1.9479,1.9473,1.9472,1.9482,1.9495,1.9486,1.9457,1.9457,1.9457,1.9457,1.9457,1.9457,1.8683,1.873,1.8768,1.884,1.8886,1.8942,1.8974,1.902,1.9066,1.9138,1.9186,1.9229,1.9291,1.9358,1.9413,1.9431,1.9452,1.9441,1.9465,1.9476,1.948,1.9484,1.9476,1.9445,1.9445,1.9448,1.9448,1.9448]}]]